Flag for Peru Weather past 2 weeks in Arequipa, Arequipa, Peru

Now
70 °F

Passing clouds.


Feels Like: 70 °F
Forecast: 51 / 73 °F
Wind: 15 mph from Southwest

Location: Arequipa Airport

Current Time: Oct 25, 2014 at 2:10:03 PM

Latest Report: Oct 25, 2014 at 1:00 PM


Visibility: N/A

Pressure: 30.27 "Hg

Humidity: 20%

Dew point: 27 °F

Location of ArequipaLocation

Historic Weather in Arequipa — Graph

°F

Arequipa temperature yesterday

Maximum temperature yesterday: 72 °F (at 11:00 AM)
Minimum temperature yesterday: 48 °F (at 3:00 AM)
Average temperature yesterday: 61 °F

Past Weeks' High & Low Weather Summary

 TemperatureHumidityPressure
High77 °F (Oct 15, 10:00 AM)72% (Oct 10, 11:00 PM)30.39 "Hg (Oct 10, 11:00 PM)
Low48 °F (Oct 24, 3:00 AM)10% (Oct 24, 12:00 PM)30.24 "Hg (Oct 10, 2:00 PM)
Average61 °F33%30.31 "Hg
* Reported Oct 10 1:00 PM — Oct 25 1:00 PM, Arequipa, Weather by CustomWeather, © 2014

Note: Actual official high and low records may vary slightly from our data, if they occured in-between our weather recording intervals... More about our weather records

Advertising

Arequipa weather history for previous 24 hours

 ConditionsComfort  
Time TempWeatherWind HumidityBarometerVisibility
1:00 PM
Oct 25
70 °FPassing clouds.15 mph20%30.27 "HgN/A
12:00 PM70 °FPassing clouds.14 mph16%30.30 "HgN/A
11:00 AM70 °FPassing clouds.13 mph13%30.33 "HgN/A
10:00 AM68 °FPassing clouds.6 mph14%30.33 "HgN/A
9:00 AM66 °FPassing clouds.7 mph14%30.33 "HgN/A
8:00 AM66 °FSunny.3 mph13%30.33 "Hg10 mi
7:00 AM61 °FSunny.8 mph15%30.33 "Hg10 mi
6:00 AM52 °FSunny.7 mph28%30.30 "Hg10 mi
5:00 AM50 °FClear.6 mph28%30.27 "Hg10 mi
4:00 AM52 °FClear.6 mph28%30.27 "Hg10 mi
3:00 AM52 °FClear.6 mph28%30.27 "Hg10 mi
2:00 AM50 °FClear.5 mph30%30.27 "Hg10 mi
1:00 AM54 °FClear.6 mph26%30.27 "Hg10 mi
12:00 AM55 °FClear.6 mph24%30.30 "Hg10 mi
11:00 PM
Oct 24
57 °FClear.7 mph25%30.30 "Hg10 mi
10:00 PM57 °FClear.8 mph23%30.33 "Hg10 mi
9:00 PM57 °FClear.7 mph21%30.30 "Hg10 mi
8:00 PM59 °FClear.6 mph20%30.27 "Hg10 mi
7:00 PM61 °FClear.No wind20%30.27 "Hg10 mi
6:00 PM63 °FClear.8 mph19%30.24 "Hg10 mi
5:00 PM66 °FSunny.13 mph15%30.24 "Hg10 mi
4:00 PM70 °FPassing clouds.13 mph13%30.24 "HgN/A
3:00 PM72 °FPassing clouds.12 mph13%30.24 "HgN/A
2:00 PM72 °FPassing clouds.13 mph11%30.24 "HgN/A
Weather by CustomWeather, © 2014

See weather overviewHow to use our weather pages